FENGYUN 1C DEB, 31068

Orbit data source: Space-Track

FENGYUN 1C DEB, 31068 is space debris in SSO originally from a launch on Mon, 10 May 1999 UTC launched from the Taiyaun Space Center, China (TSC). Fengyun 1C debris stems from the Chinese weather satellite Fengyun-1C, which was intentionally destroyed by a Chinese anti-satellite missile in 2007. This event dramatically increased the amount of space debris, with thousands of trackable fragments posing hazards to satellites and human spaceflight. The Fengyun 1C debris cloud has become a focal point in discussions about space sustainability and the need for international regulations to prevent the creation of new debris.

Loading next visibility...
Identifier
31068, 1999-025BFN
Orbit
SSO
Country
Flag of CNCN / PRC
Related business
Manufacturer
Unknown
Mission
Spacecraft
Bus & Motor
Unknown
Mass
Unknown
Launch date (UTC)
1999-05-10 (27 years ago)
Launch vehicle
Unknown
Launch site
Taiyaun Space Center, China (TSC)
Object type
Payload
Rocket body
Debris
Shape & HBR
Unknown shape, 0.1 m
Radar Cross Section
Small (<0.1 m²)

Expand to show TLE details & history
Last TLE update: 2 days ago

TLE from 2 days ago
0 FENGYUN 1C DEB
1 31068U 99025BFN 26206.66701176  .00000276  00000-0  16095-3 0  9992
2 31068  98.6510 184.8746 0163861 199.7987 159.6775 14.09372752995230
Epoch: 2026-07-25T16:00Z
TLE epoch observation values (Epoch: 2026-07-25T16:00:29.816Z)
Latitude
-0.00003°
Longitude
1.37436°
Altitude
975.918 km
Speed
7.307 km/s
True Right ascension
12h 19m 29s
True Declination
0° 00' 00"
Sunlit
Object was in daylight at epoch
Visualization orbit readout
Latitude
Unknown
Longitude
Unknown
Altitude
Unknown
Speed
Unknown
Apparent Right ascension
Unknown
Apparent Declination
Unknown
Sunlit
N/A
Visualization observer readout
Local Sidereal Time
20:05:24
Azimuth
Unknown
Elevation
Unknown
Doppler factor
Unknown
Orbital elements
Apogee altitude
977.271 km
Perigee altitude
740.105 km
Semi-major axis
7,236.825 km
Eccentricity
0.01639
Inclination
98.651°
RAAN
184.8746°
Arg. of periapsis
199.7987°
True anomaly
160.31732°
Mean anomaly
159.6775°
Eccentric anomaly
159.99863°
Mean motion
3.5255 °/min
Orbital period
102.11 mins
BSTAR
0.00016095
Loading maneuver chart data...
Computing Atmospheric mass density...

Documentation

Showing up to 5 results
|